Overview Statistics Trail Chart Weather Telemetry Raw packets
 

This is the latest recevied weather packets stored in our database for station/object WA6ODQ-13. If no packets are shown the sender has not sent any weather packets the latest 10 day(s).

<< 44 45 46 47 48 49 50 >>
Time Temp. Humidity Pressure Rain* Wind** Luminosity Snow
1788368604 20° C 68% 1015.4 hPa 0 mm - 423 W/m² -
1788368300 20.56° C 68% 1015.6 hPa 0 mm - 337 W/m² -
1788367999 20° C 69% 1015.4 hPa 0 mm - 454 W/m² -
1788367707 19.44° C 71% 1015.6 hPa 0 mm - 134 W/m² -
1788367389 20° C 70% 1015.9 hPa 0 mm - 129 W/m² -
1788367083 20° C 70% 1015.5 hPa 0 mm - 330 W/m² -
1788366782 19.44° C 71% 1015.5 hPa 0 mm - 376 W/m² -
1788366475 18.89° C 72% 1015.7 hPa 0 mm - 369 W/m² -
1788366165 19.44° C 70% 1015.3 hPa 0 mm - 77 W/m² -
1788365860 18.89° C 72% 1015.3 hPa 0 mm - 154 W/m² -
1788365555 18.89° C 72% 1015.4 hPa 0 mm - 92 W/m² -
1788365252 18.89° C 74% 1015.5 hPa 0 mm - 72 W/m² -
1788364946 18.89° C 74% 1015.8 hPa 0 mm - 89 W/m² -
1788364653 18.89° C 73% 1015.6 hPa 0 mm - 127 W/m² -
1788364343 18.89° C 74% 1015.7 hPa 0 mm - 161 W/m² -
1788364039 18.33° C 75% 1015.6 hPa 0 mm - 132 W/m² -
1788363738 18.33° C 75% 1015.8 hPa 0 mm - 123 W/m² -
1788363432 18.33° C 76% 1015.8 hPa 0 mm - 89 W/m² -
1788363126 17.78° C 77% 1015.6 hPa 0 mm - 76 W/m² -
1788362822 17.78° C 78% 1015.6 hPa 0 mm - 68 W/m² -
1788362518 17.78° C 78% 1015.7 hPa 0 mm - 70 W/m² -
1788362213 17.78° C 78% 1015.5 hPa 0 mm - 69 W/m² -
1788361908 17.78° C 79% 1015.4 hPa 0 mm - 62 W/m² -
1788361603 17.78° C 79% 1015.4 hPa 0 mm - 58 W/m² -
1788361299 17.22° C 80% 1015.3 hPa 0 mm - 54 W/m² -

* Rain latest hour (hover to see other rain measurements)
** Current wind speed in m/s (hover to see current wind gust speed)